Theta_e
329 331 331 341 346 344 345 346 347 347 348 348 349 349 349 349 349 349 348 349 349 349 349 348 348 348 349 349 349 349 349 349 348 349 349 348 348 348 348 348 348 348 348 348 347 347 347 347 348 348 349 350 350 350 349 348 347 347 347 347 347 348 348 348 348 348 349 349 349 349 349 350 351 351 349 348 352 353 353 351 351 345 345 348 353
328 329 330 332 344 343 343 344 344 345 346 347 347 348 348 348 348 348 348 348 348 348 348 348 348 347 348 348 348 349 348 348 348 348 348 348 348 347 348 348 348 348 348 347 348 348 346 346 347 347 349 349 349 349 349 349 347 347 347 347 347 347 348 348 347 347 347 347 347 347 346 347 349 350 350 349 353 353 352 351 350 344 341 355 354
328 328 329 332 342 342 341 342 344 344 343 344 346 347 348 348 348 347 347 347 347 347 347 347 347 347 347 348 348 347 347 347 347 347 348 347 347 347 347 347 347 347 347 347 347 347 347 347 347 347 347 348 349 349 349 349 348 347 347 347 347 348 348 348 347 346 347 346 346 344 343 344 346 349 353 352 354 353 352 351 351 350 343 352 352
328 328 328 334 339 341 341 341 342 343 342 342 343 344 345 345 345 346 346 346 346 346 346 346 346 347 347 347 347 347 347 346 346 346 346 346 346 345 346 346 346 346 347 347 347 347 346 346 347 347 347 347 347 348 348 348 347 347 347 347 347 347 347 347 347 346 345 345 344 342 341 339 339 345 353 355 355 353 350 350 350 352 352 352 353
327 327 328 330 332 338 340 340 341 341 341 341 341 342 342 343 344 344 344 344 345 344 345 346 346 346 345 345 344 344 344 344 344 345 344 344 344 344 343 344 345 346 346 348 348 347 347 347 347 346 345 343 344 345 346 346 347 347 347 347 347 347 347 345 343 343 343 343 342 340 338 338 337 343 352 354 355 353 349 350 351 353 352 353 352
326 326 327 327 327 332 338 339 340 340 340 340 340 340 341 341 341 343 342 342 343 343 344 345 344 344 343 342 342 342 341 342 343 343 342 341 341 341 341 342 343 344 345 346 347 346 346 346 344 343 340 339 339 339 341 342 343 344 344 345 345 344 342 340 339 339 341 341 339 336 336 337 337 340 350 349 353 352 350 352 351 346 348 351 348
325 325 326 326 327 330 338 338 339 339 338 338 339 340 340 340 340 341 340 340 341 343 343 342 342 341 340 340 339 339 339 340 340 340 339 338 338 338 338 339 340 341 343 343 343 342 342 342 341 339 337 335 335 334 335 337 337 338 339 339 339 339 336 334 334 337 339 338 334 334 334 334 336 336 348 349 350 352 352 349 345 344 346 347 349
324 324 325 325 325 333 337 337 338 338 337 337 338 340 339 338 338 338 339 339 338 338 339 338 338 338 338 337 336 336 336 337 336 336 337 336 335 334 334 334 335 335 337 338 339 338 337 336 335 335 333 331 331 331 331 332 333 334 334 334 334 333 331 328 330 332 335 333 333 333 333 332 334 335 347 348 348 349 348 346 346 346 347 349 348
323 323 324 325 326 334 337 337 337 337 337 337 337 337 337 337 337 336 336 336 336 336 336 336 336 335 335 335 334 334 334 334 334 333 332 332 331 330 330 329 330 331 331 332 333 333 332 332 331 331 330 329 328 327 328 328 329 329 330 330 329 329 327 325 324 324 325 328 330 331 331 333 334 334 343 346 347 348 347 348 349 347 348 348 347
322 322 323 324 325 334 336 337 337 337 336 336 335 336 335 336 335 335 335 335 334 334 334 334 333 333 333 333 332 332 331 331 330 330 329 328 328 328 328 328 327 328 329 330 330 330 330 329 328 328 327 326 325 325 324 324 325 326 327 327 327 327 327 324 320 315 315 320 324 327 330 337 333 332 338 344 345 348 348 342 342 345 346 348 348
320 321 321 322 323 333 335 335 335 335 335 335 334 334 334 334 335 334 334 334 334 333 333 333 333 332 333 332 332 331 330 328 328 327 327 327 327 327 326 326 326 326 326 328 328 328 327 327 326 326 325 325 324 323 323 323 324 324 324 323 323 323 323 322 317 309 309 312 316 322 327 332 329 330 341 345 343 346 346 343 343 346 349 349 349
319 319 320 320 327 333 334 333 333 335 335 334 334 334 334 334 334 335 335 334 334 333 333 332 331 331 330 330 329 328 327 327 326 325 325 325 325 324 324 324 324 324 324 324 325 325 326 325 325 324 324 324 323 322 322 322 322 321 321 321 321 321 321 319 313 309 307 308 310 316 318 323 327 330 339 343 345 343 348 347 347 347 347 348 348
317 318 319 319 322 331 333 332 333 333 334 334 334 334 334 334 334 334 333 333 333 332 331 330 329 328 328 327 327 327 326 326 326 325 323 323 322 322 323 323 323 323 322 322 323 323 324 324 323 323 322 322 321 322 322 322 322 322 321 320 320 320 319 316 310 308 307 306 308 310 314 317 322 331 340 343 344 344 344 344 346 346 345 345 346
315 316 317 318 318 327 330 331 332 332 333 333 333 332 332 332 332 332 332 331 330 329 329 328 327 327 327 326 326 325 325 324 324 323 323 322 321 321 321 321 321 321 321 321 321 321 322 322 322 322 322 322 321 322 322 321 320 320 318 319 319 319 318 314 313 306 306 305 308 311 312 317 319 331 337 342 343 342 342 345 345 344 345 345 345
315 314 314 315 316 319 326 329 330 331 331 332 331 331 331 330 330 329 330 329 328 327 327 326 326 326 325 325 325 324 323 323 322 322 321 320 320 319 319 320 321 321 321 320 320 321 321 321 321 321 321 321 320 321 320 319 319 318 317 316 316 315 315 308 307 305 304 308 306 311 312 316 324 330 331 337 342 344 343 342 343 343 343 343 343
314 313 314 314 314 315 319 325 328 328 330 330 329 329 329 328 328 328 328 327 327 326 326 326 325 325 324 323 322 321 320 319 319 320 320 320 319 319 319 320 320 321 321 321 321 321 321 321 320 319 318 319 319 319 318 318 317 316 316 315 315 315 313 310 303 302 302 305 308 312 311 313 324 328 329 332 335 340 342 344 345 344 344 343 343
313 313 313 312 312 314 316 317 321 325 326 326 327 327 327 326 326 326 325 325 325 325 325 324 324 324 323 321 320 318 317 316 316 318 319 319 319 319 319 320 321 320 320 321 321 320 320 320 318 317 317 317 317 317 317 316 316 315 314 314 313 312 311 309 301 300 301 307 307 307 305 311 321 326 327 328 330 333 334 336 339 341 342 343 343
311 311 312 311 311 312 313 314 317 317 316 321 324 326 326 326 325 324 324 324 324 324 324 323 322 322 321 319 317 316 316 315 314 316 318 318 317 317 318 320 320 319 319 320 319 319 318 318 317 315 315 315 315 315 315 315 314 313 312 313 312 310 309 307 299 300 301 306 303 306 305 318 321 324 327 327 327 328 329 329 331 332 333 337 339
309 310 310 310 310 310 311 311 311 311 312 312 312 320 323 324 324 323 322 322 322 322 321 320 319 318 318 317 316 315 314 313 313 313 315 314 313 313 316 318 318 317 318 318 318 317 316 316 315 314 313 312 312 313 313 313 313 312 311 311 310 308 306 302 299 299 300 300 302 300 306 317 319 322 325 326 326 326 326 326 326 327 329 332 336
307 308 308 308 308 308 308 308 308 308 308 308 309 312 320 321 321 321 321 320 320 319 318 316 316 315 314 313 312 308 309 307 309 308 311 312 312 312 313 315 315 316 316 316 316 315 315 313 312 312 311 310 310 310 310 311 311 311 311 310 309 306 299 298 297 298 299 300 304 299 312 315 318 321 323 324 325 325 326 326 326 326 326 327 328
305 305 306 306 306 306 306 305 305 305 306 306 307 307 313 318 318 318 319 318 317 317 316 315 313 311 308 307 305 299 299 299 300 300 306 303 310 312 311 312 312 313 313 314 314 313 313 311 310 310 309 308 306 305 306 308 309 309 308 307 305 298 298 298 298 299 299 298 302 300 312 314 317 320 322 323 323 324 324 324 324 325 325 325 326
302 302 304 305 304 305 305 304 303 303 303 305 305 306 309 312 307 308 308 311 313 313 308 303 308 302 307 301 297 299 297 297 300 306 302 302 306 310 309 309 309 309 310 311 311 312 311 310 309 308 307 305 303 295 297 301 304 305 305 304 298 297 298 298 297 297 299 297 301 305 311 313 315 318 321 321 322 322 322 322 323 323 324 325 325
299 300 301 303 303 304 303 302 302 301 302 302 304 305 304 303 303 303 304 307 306 303 300 302 298 299 300 298 298 296 295 297 299 301 302 308 305 308 306 306 306 305 307 308 308 309 309 308 306 305 304 302 294 293 293 294 294 300 300 296 295 296 297 297 297 297 297 299 298 308 309 312 314 317 319 320 321 321 321 322 322 323 324 324 325
299 300 301 301 302 302 302 302 301 300 301 301 302 302 300 300 300 301 301 301 301 300 298 298 297 296 298 297 296 295 296 296 307 307 304 298 301 306 305 305 304 302 300 298 302 304 303 304 304 302 299 296 292 292 293 292 293 293 294 294 294 295 295 296 295 296 296 299 299 307 308 310 312 314 317 319 320 320 320 321 322 322 323 323 324
299 299 298 299 300 300 300 300 300 299 299 299 300 299 298 298 298 298 298 297 298 297 296 296 295 295 296 297 295 296 296 297 295 294 292 293 292 292 292 292 291 293 297 290 291 292 293 291 292 294 292 293 292 292 292 293 293 293 293 293 293 294 294 295 294 294 295 296 298 305 306 307 310 312 315 317 318 319 319 320 321 322 323 323 324
296 296 297 298 298 299 299 299 299 298 298 298 298 299 298 296 296 296 296 297 297 296 296 296 296 295 295 296 296 294 294 293 292 292 292 292 291 290 290 290 290 290 293 289 289 290 290 290 291 291 291 292 291 292 292 293 292 292 292 293 293 293 293 293 293 293 294 294 296 304 304 306 308 310 312 315 316 317 318 319 320 321 322 323 324
296 297 297 298 298 298 298 298 299 297 296 296 295 297 295 295 295 296 296 295 295 296 295 295 295 294 295 296 295 293 292 292 292 291 291 291 291 290 289 289 289 289 291 289 289 289 289 290 290 290 290 291 291 291 291 291 291 291 292 292 292 292 292 292 292 292 293 293 296 302 303 304 307 309 310 313 314 315 317 318 319 320 321 321 322
296 297 296 297 298 297 298 298 299 298 296 295 294 295 295 294 294 298 297 297 296 296 295 295 295 294 295 295 294 292 292 291 291 291 290 291 290 290 290 288 289 289 290 289 289 288 289 289 290 289 290 290 290 290 291 290 290 290 290 291 291 290 291 291 291 291 292 292 293 298 301 303 305 307 309 311 313 315 316 317 318 319 320 321 321
295 296 296 296 297 298 297 297 298 298 298 296 294 295 296 295 295 296 295 299 296 295 295 295 294 294 294 295 294 292 291 291 291 291 290 290 290 289 288 288 288 288 289 289 289 288 288 288 289 289 289 289 288 290 290 289 289 290 289 289 289 290 290 290 290 291 291 291 291 294 299 301 304 306 307 309 311 313 315 315 316 317 318 318 319
297 296 296 296 297 298 297 297 298 299 298 297 294 296 296 295 295 296 295 298 295 295 294 294 293 293 293 294 293 292 291 291 291 290 290 289 289 289 288 288 287 288 288 289 289 288 287 288 288 288 288 288 288 290 289 289 289 289 289 289 289 289 289 289 290 290 290 290 290 292 297 299 302 304 306 308 310 312 313 314 315 316 317 318 319
297 296 296 296 297 297 297 298 298 299 298 297 295 295 296 295 295 296 295 297 295 295 294 293 292 292 292 293 292 293 291 291 290 289 289 289 288 288 287 287 286 287 288 288 289 288 287 288 289 288 288 287 288 288 289 288 287 288 288 288 288 289 289 289 289 290 290 290 290 290 292 297 300 302 304 306 308 310 311 312 314 315 316 317 318
296 296 297 296 296 296 297 297 297 298 298 297 297 295 295 295 295 296 295 296 295 294 293 293 293 292 292 292 292 292 292 290 290 289 289 288 288 288 287 287 286 286 288 287 288 288 288 288 288 288 288 288 288 288 289 287 287 287 287 288 288 288 288 288 288 289 289 289 289 290 290 293 297 300 302 304 307 308 310 311 312 313 314 315 316
298 298 297 296 295 296 297 297 297 297 297 296 296 295 295 295 295 295 295 295 294 294 293 292 292 292 291 291 291 291 292 290 290 290 291 288 288 287 287 287 287 287 287 288 287 286 287 287 287 288 288 287 287 287 289 287 286 287 287 287 288 287 288 288 288 288 289 289 289 289 289 291 292 297 299 302 305 306 308 309 310 311 312 313 314
298 297 295 295 296 297 298 297 297 297 297 296 295 294 295 295 295 294 295 294 294 293 293 292 292 292 291 291 291 291 291 290 290 289 289 288 288 287 287 286 286 287 287 287 286 286 286 287 287 286 290 287 286 287 286 286 286 286 286 286 286 287 287 287 288 288 288 288 288 288 289 290 290 291 293 299 301 303 306 308 309 309 311 312 313
298 296 295 296 296 296 297 296 297 296 297 295 295 294 295 294 294 293 293 294 293 293 292 291 292 292 291 290 291 291 290 290 290 289 288 288 287 287 286 286 287 287 286 286 286 286 286 286 286 286 285 286 285 287 285 285 285 286 286 287 286 287 287 287 288 287 287 288 288 288 289 290 290 291 292 292 296 299 303 306 308 309 310 311 311
298 297 296 296 295 295 297 296 296 296 296 296 295 294 295 294 294 294 293 293 293 292 292 292 292 291 290 290 290 291 290 290 289 289 288 287 287 286 286 286 286 286 286 286 286 286 285 286 286 286 285 285 285 284 284 284 285 285 286 286 286 288 287 287 287 287 287 287 288 288 289 289 290 290 295 293 293 295 300 303 306 307 306 307 308
299 298 296 295 295 295 296 295 295 295 296 295 294 294 294 293 293 293 293 292 292 291 291 291 291 291 290 289 290 291 290 289 289 288 288 287 286 286 286 286 286 285 285 284 285 286 285 287 285 287 285 284 284 284 284 284 285 286 286 286 286 287 286 286 286 286 289 287 287 287 288 289 290 295 292 291 293 293 297 302 304 304 304 306 306
299 298 297 296 295 295 296 295 295 296 296 295 294 293 293 293 292 292 293 292 291 291 291 291 291 290 290 289 290 290 290 289 288 288 287 287 286 286 286 286 286 285 284 284 284 284 284 285 284 285 284 283 283 283 284 284 286 286 285 285 285 285 286 286 286 290 287 286 286 286 287 288 289 289 290 291 291 293 293 297 300 300 301 303 304
299 298 296 296 295 294 295 295 295 295 295 294 293 293 292 291 290 291 291 290 290 289 290 290 290 290 289 289 289 290 290 288 288 287 287 287 286 285 285 285 285 284 284 284 284 285 285 284 284 283 284 284 284 284 284 285 285 285 285 285 285 285 286 285 288 286 285 285 286 290 289 288 288 289 290 290 290 290 292 291 291 291 292 299 303
298 297 296 295 294 294 294 294 294 294 294 293 292 291 291 291 290 289 289 290 289 289 289 290 290 289 290 289 289 289 289 288 287 287 287 286 285 285 285 285 285 284 284 284 283 283 283 283 283 283 283 285 285 284 284 284 283 283 284 285 284 284 285 285 285 285 286 285 285 287 285 286 286 286 286 287 287 288 287 287 289 288 290 294 300
296 296 295 294 294 294 293 293 293 293 293 292 291 291 290 289 289 290 291 290 290 289 289 289 289 289 289 289 289 288 288 288 287 287 286 287 285 285 285 284 285 284 284 284 283 283 283 283 285 285 283 282 283 283 283 283 282 281 282 282 283 283 285 286 284 284 285 285 285 285 285 284 284 284 285 286 286 285 286 288 289 289 289 290 292
295 295 294 294 293 293 293 293 293 293 293 293 293 292 292 292 291 291 291 290 290 289 289 288 289 289 289 289 288 288 288 287 287 286 286 286 285 285 285 284 284 284 284 284 283 286 285 283 283 282 283 282 282 283 284 281 279 279 279 280 280 282 284 284 283 283 285 285 285 285 284 284 285 285 286 285 285 285 287 288 288 289 289 290 290
296 295 295 293 292 292 293 293 293 293 293 293 293 292 292 292 292 291 291 289 289 290 289 288 289 288 289 288 288 288 287 287 287 287 286 286 285 285 285 284 284 285 284 283 284 284 283 283 282 281 281 282 283 284 282 282 279 280 280 279 276 278 282 280 281 284 285 284 285 283 285 284 285 285 285 285 285 286 288 287 287 288 288 289 289
294 293 293 293 292 292 292 292 292 293 293 293 293 293 292 291 289 290 289 288 287 288 287 287 287 287 288 288 287 288 287 287 287 286 286 285 285 285 284 284 284 285 284 283 283 282 282 282 282 283 282 280 279 281 283 282 281 279 276 278 277 278 275 276 280 283 283 283 282 283 283 284 284 284 285 285 286 286 287 287 287 288 287 287 288
294 294 293 293 293 292 292 292 292 292 293 293 293 291 290 288 287 287 287 286 286 285 285 284 286 287 288 287 287 287 287 287 286 286 286 285 284 284 284 284 284 284 283 282 282 282 282 282 282 282 281 280 280 279 281 282 282 282 279 277 276 276 275 276 279 279 280 281 282 282 284 284 283 284 284 285 285 286 286 286 285 285 286 286 285
293 294 294 293 292 292 292 292 292 292 292 292 292 291 290 289 287 287 286 286 285 285 286 286 285 286 287 288 287 287 287 286 286 286 286 285 284 284 283 283 283 283 283 282 282 282 281 281 282 282 281 281 280 280 279 282 282 283 280 279 279 275 276 278 277 275 280 282 282 282 282 282 282 283 283 284 284 284 285 284 284 284 284 284 284
294 293 292 292 292 292 291 292 291 291 292 292 291 291 290 289 289 289 289 288 287 287 288 288 287 287 287 287 287 286 287 286 285 285 285 285 284 283 283 283 283 283 284 282 282 282 282 281 282 281 281 284 281 279 280 280 279 280 281 281 282 282 281 278 276 276 276 278 278 280 280 281 281 282 283 282 282 282 283 283 283 283 283 283 284
291 291 291 291 291 291 291 291 291 291 291 292 291 291 290 289 289 289 289 288 288 288 288 288 287 287 286 286 286 286 286 286 285 284 285 284 284 283 283 283 283 282 283 282 282 281 282 282 282 281 282 282 281 280 279 279 278 279 282 280 280 280 279 279 279 277 276 274 277 280 280 279 281 281 282 282 281 281 282 282 282 282 282 283 283
290 291 291 291 291 291 291 290 290 290 290 291 290 290 291 290 289 289 288 289 288 287 287 287 287 287 286 285 285 285 285 285 285 284 284 284 284 283 282 282 282 282 284 282 281 281 281 281 281 281 281 281 281 281 279 278 279 278 278 278 278 278 278 278 278 277 276 275 275 276 277 280 280 280 280 281 281 282 282 282 282 283 284 283 283
290 291 289 290 290 290 290 289 289 290 290 290 290 290 290 290 289 288 288 288 287 285 286 285 286 285 285 285 285 284 284 284 284 284 283 283 283 283 282 282 282 282 283 281 281 281 281 280 280 280 280 280 281 281 280 279 280 279 279 279 278 277 277 276 276 276 276 276 275 275 276 276 276 278 280 280 280 280 281 282 281 281 282 282 282
288 289 289 290 289 290 289 289 289 289 289 289 289 289 289 289 289 289 288 288 287 285 285 284 285 284 285 284 284 285 284 284 283 283 283 283 283 283 282 282 282 283 282 281 281 281 280 280 280 280 280 280 280 281 283 280 280 279 278 278 278 278 277 277 276 277 276 275 275 275 276 277 276 276 278 280 281 281 281 281 281 281 281 281 282
Wind_Speed
4 6 3 4 7 8 9 11 12 11 11 11 11 11 11 12 11 11 11 11 10 11 11 11 11 10 10 11 11 11 11 11 10 10 10 10 9 8 8 7 7 6 6 6 5 5 5 5 6 7 8 9 9 10 9 9 8 8 8 8 9 9 9 9 10 10 10 10 10 11 11 10 9 8 6 3 2 1 3 2 2 1 1 2 4
7 4 4 2 7 10 9 8 10 11 12 12 11 11 12 12 12 12 13 13 12 12 12 11 11 11 11 11 11 11 11 11 11 11 11 11 10 9 9 8 7 7 7 6 6 6 5 6 6 7 8 9 10 10 10 10 10 9 9 9 9 9 9 10 11 11 11 10 10 11 10 10 10 8 5 2 1 1 4 2 1 1 1 1 3
6 4 3 3 7 9 9 10 10 10 11 11 12 12 12 12 12 13 13 13 12 11 11 11 11 11 12 12 11 11 11 11 11 11 11 11 11 10 10 9 8 7 7 7 7 7 7 6 7 8 9 10 10 11 11 11 10 10 10 10 10 10 10 10 10 11 13 12 11 11 10 9 10 9 7 1 2 3 4 3 2 1 1 2 2
8 5 3 5 7 7 9 9 9 10 11 10 10 9 10 11 11 12 12 12 12 12 11 10 11 11 11 11 11 11 11 11 11 10 11 11 11 11 10 10 10 9 8 8 8 7 7 8 10 10 12 12 12 12 12 12 11 10 11 11 11 12 12 12 11 11 12 12 11 8 5 6 7 8 3 4 6 5 3 3 2 1 3 4 3
8 5 4 4 4 7 10 10 10 11 11 10 11 11 10 9 10 10 10 11 10 11 11 11 11 11 10 10 9 9 9 10 10 11 12 12 12 12 10 9 10 11 10 11 12 10 11 11 13 14 13 13 14 13 13 13 13 13 12 12 12 12 12 12 11 12 11 12 10 6 5 5 5 6 6 3 7 6 4 2 2 4 3 3 5
7 6 5 5 4 5 10 11 12 11 11 11 11 11 10 10 10 10 10 10 10 10 11 12 11 10 9 9 9 8 8 9 10 11 12 13 13 13 12 11 10 11 11 12 14 14 14 14 14 13 14 14 14 13 13 13 13 13 13 13 13 13 12 12 12 12 11 11 7 5 5 5 5 4 2 4 6 6 3 3 4 4 5 6 7
8 5 6 5 4 6 9 11 12 12 12 12 12 12 11 10 10 10 10 10 10 11 11 10 10 9 8 8 7 7 7 9 10 12 13 12 12 12 12 12 12 12 12 14 14 14 14 14 14 14 14 14 14 13 13 13 12 13 13 13 13 13 14 14 13 13 12 7 5 5 5 5 5 3 7 3 1 5 4 5 5 5 5 6 7
6 6 5 5 5 6 10 13 13 13 13 13 13 12 12 11 10 11 11 11 10 10 9 9 9 8 9 9 8 8 8 8 8 10 11 11 12 12 12 12 12 12 12 12 13 12 13 13 14 14 14 14 14 13 13 12 12 12 12 13 13 13 14 14 14 13 12 6 6 5 5 5 6 5 8 8 2 3 4 5 5 4 5 6 5
8 6 6 6 5 9 11 12 14 14 14 13 13 14 13 12 11 11 11 11 11 11 11 10 10 9 10 10 10 9 9 9 9 8 9 11 11 12 12 12 12 12 12 12 12 13 13 14 14 14 13 13 13 12 13 12 12 12 12 12 13 13 14 14 14 12 7 6 7 6 6 6 5 6 9 11 6 2 3 4 3 4 3 3 3
7 6 6 6 5 10 10 12 15 15 15 15 14 14 14 13 13 13 13 13 12 12 12 11 11 11 11 11 10 10 10 9 9 10 11 11 11 12 12 12 13 13 13 13 13 13 14 14 14 14 14 13 13 13 12 12 12 12 12 13 14 14 15 15 15 9 6 5 6 6 6 10 6 6 9 11 10 2 3 2 1 2 1 2 2
7 6 5 5 6 10 13 15 15 15 16 15 15 15 15 14 13 14 13 13 13 13 13 12 12 12 13 12 12 12 12 11 11 11 11 11 11 11 12 12 12 12 13 13 13 13 13 13 13 13 13 13 12 12 11 11 11 11 12 12 13 14 15 15 12 6 7 6 6 5 7 12 6 5 11 14 11 4 3 3 1 1 2 4 5
7 6 5 4 7 11 13 15 15 16 16 16 16 15 15 15 15 15 15 15 15 14 14 15 15 14 14 14 14 13 13 12 12 11 11 11 11 11 12 12 12 12 12 12 12 12 13 13 13 13 12 12 11 11 11 11 12 11 12 12 12 12 13 13 7 7 7 8 7 6 6 7 7 8 16 14 12 7 2 2 3 2 4 4 6
7 6 6 5 5 9 12 16 15 16 16 16 16 16 16 16 16 16 16 16 16 16 16 15 15 15 15 14 14 14 13 13 13 12 12 12 11 12 11 11 12 12 12 12 12 12 12 12 12 12 12 12 12 12 12 12 12 13 13 13 14 13 13 11 5 6 6 7 7 8 7 5 6 12 14 14 13 11 9 3 3 4 3 5 5
8 7 5 5 4 8 11 12 13 15 16 16 16 16 16 16 15 15 15 16 16 16 15 15 15 15 15 15 15 14 14 13 13 13 12 12 12 12 11 11 11 11 11 11 11 11 11 12 12 12 12 12 12 12 12 13 13 14 15 16 16 15 14 7 6 4 5 6 6 7 7 7 6 14 14 13 12 10 9 5 6 5 4 4 5
10 7 6 4 4 4 9 11 12 13 14 15 15 15 15 15 15 15 15 15 15 15 15 15 15 15 15 15 15 15 14 14 13 13 12 12 12 12 11 11 11 12 11 11 11 12 12 12 12 12 13 12 13 13 13 13 14 15 16 17 17 16 14 6 6 5 6 6 5 6 7 6 13 16 15 14 13 14 13 9 3 3 5 5 5
9 8 6 5 4 4 4 8 10 10 11 12 13 14 14 14 14 14 14 14 14 14 14 15 15 15 15 15 15 15 15 14 13 13 12 12 12 12 11 12 12 12 12 12 12 12 12 12 12 13 13 13 13 14 14 14 15 15 16 16 15 16 14 8 6 6 6 6 6 6 7 7 15 15 15 14 14 13 13 13 15 9 8 7 7
8 8 8 6 6 5 6 5 6 9 9 10 10 12 13 14 14 14 14 14 15 15 15 15 15 15 15 15 15 15 14 14 13 13 12 12 12 12 12 12 12 12 12 12 12 12 13 13 13 13 13 13 14 14 14 14 14 15 15 15 15 15 13 10 7 6 6 6 6 6 7 7 14 16 15 14 14 14 14 14 12 12 12 11 10
6 7 8 7 6 5 5 5 6 6 5 7 9 11 12 14 15 15 15 15 15 15 15 16 16 16 15 15 14 14 13 13 13 13 12 12 12 12 12 12 12 12 12 12 13 13 13 13 13 13 13 13 13 13 13 14 14 14 14 14 13 13 11 10 6 6 7 7 6 6 6 11 18 16 16 16 14 15 15 15 15 15 15 14 14
6 7 6 7 7 5 5 5 5 5 6 5 4 8 12 13 15 15 15 15 15 15 15 15 15 15 15 14 13 12 11 12 12 12 12 11 11 10 12 12 12 13 13 13 13 14 14 14 14 14 14 14 13 13 13 13 14 14 14 13 11 9 9 7 6 6 6 6 6 7 7 16 16 17 17 16 16 16 15 15 16 16 16 15 15
6 6 7 7 6 6 5 5 5 5 5 5 5 5 10 12 13 14 15 14 14 14 14 14 13 13 13 12 11 8 8 7 10 7 11 10 10 7 11 12 13 13 13 13 13 13 14 14 14 14 14 14 14 13 14 14 14 14 14 13 11 9 6 5 5 5 6 6 6 6 10 17 17 16 16 17 17 17 17 17 16 17 16 16 16
5 7 8 8 7 7 6 6 5 6 6 5 5 4 6 12 10 12 13 14 14 14 14 11 9 10 9 10 9 6 5 5 6 5 7 5 7 10 11 12 13 12 12 12 12 12 12 13 12 13 13 12 11 11 12 13 13 13 13 12 9 7 6 6 6 5 5 5 5 6 15 15 15 16 15 15 16 16 16 17 17 17 17 17 16
9 8 7 9 9 8 8 7 6 7 6 6 4 4 4 7 6 6 6 9 10 9 8 6 7 5 8 6 5 5 6 5 5 6 4 4 6 10 10 11 12 12 11 11 11 11 12 12 12 12 12 11 10 5 5 8 11 12 11 9 6 6 6 6 6 6 5 6 6 8 16 16 15 15 15 14 15 16 16 15 16 16 16 16 16
9 9 9 11 11 9 8 9 8 7 7 6 5 5 5 5 5 5 5 7 7 6 6 5 5 5 4 4 4 5 5 4 4 4 4 7 7 10 11 11 11 11 10 11 10 11 11 11 12 11 11 10 5 5 5 5 5 8 7 6 6 6 6 6 5 6 6 5 5 11 16 17 16 15 15 15 14 15 15 16 15 15 16 16 16
13 13 12 9 10 10 11 10 10 9 9 7 6 6 6 5 6 6 6 6 6 6 5 4 4 4 4 4 4 4 4 4 6 9 7 5 7 9 10 10 9 9 9 6 8 9 10 10 11 10 7 4 5 5 5 5 5 6 6 6 6 6 6 5 5 6 6 5 5 13 15 16 16 16 15 15 15 15 15 15 15 15 15 15 15
12 8 6 10 12 12 10 10 10 9 9 8 7 7 6 6 6 7 7 7 6 5 4 3 3 4 4 4 4 3 4 5 6 6 6 6 5 5 5 5 3 4 5 4 4 4 4 5 5 6 5 5 6 6 5 6 5 6 6 6 6 5 5 6 6 6 6 6 5 12 15 16 16 16 15 15 15 15 15 14 15 15 15 15 14
5 9 13 11 13 13 12 10 10 10 10 9 9 8 8 7 7 7 7 6 6 5 5 3 4 5 5 5 5 5 6 6 5 6 6 6 6 5 4 4 3 3 3 4 4 3 4 4 5 6 6 5 6 5 5 5 6 6 6 6 6 6 6 6 6 6 5 6 5 11 13 14 15 15 15 14 14 14 14 14 14 13 14 14 14
11 13 11 11 11 11 11 10 11 10 11 9 7 7 8 7 7 7 8 7 6 6 6 6 6 6 6 6 6 6 6 6 6 6 6 6 6 6 5 4 3 3 1 3 3 3 3 4 5 4 4 5 5 5 5 5 4 5 5 5 6 6 6 6 6 6 6 6 6 11 12 14 15 15 14 14 14 14 13 13 13 13 13 13 13
8 11 11 11 12 15 13 12 12 12 10 9 9 8 7 7 8 7 7 8 8 8 7 7 6 7 6 6 6 6 7 7 6 7 6 6 6 6 5 4 4 3 2 2 4 3 3 3 4 4 5 5 5 5 5 4 5 4 5 5 6 6 6 6 6 6 7 6 6 8 13 14 14 14 14 14 13 13 13 12 12 12 13 13 13
12 12 11 12 14 13 13 14 13 13 11 10 10 9 8 7 7 8 8 8 8 7 8 7 7 7 6 7 6 7 6 7 7 7 6 6 6 6 6 5 4 4 3 2 3 3 3 3 4 4 4 4 5 5 4 4 4 5 5 5 5 6 6 6 6 6 6 6 7 8 13 14 15 15 14 14 13 13 13 12 13 13 13 13 13
17 13 12 13 11 13 15 17 15 14 12 11 9 9 9 9 9 9 8 8 8 8 7 7 7 7 7 7 7 7 7 8 8 6 7 7 6 6 5 5 5 4 4 5 3 3 4 3 3 3 4 3 4 4 4 4 5 4 5 6 6 6 5 5 6 6 6 6 6 6 10 13 14 15 15 14 14 14 14 14 14 14 14 14 14
11 13 13 12 12 13 15 15 14 13 11 12 10 11 10 9 9 9 8 8 8 7 7 7 7 7 7 8 7 7 7 7 7 7 6 7 7 6 6 5 5 4 4 4 2 4 4 5 4 4 4 4 4 3 4 5 5 5 5 5 6 6 6 5 6 6 6 6 6 6 6 11 13 14 14 14 14 14 14 14 14 14 14 14 14
13 16 14 11 11 16 15 15 14 13 13 12 10 10 10 10 9 8 8 8 8 8 7 7 7 6 6 8 7 7 7 7 8 7 7 7 7 7 6 5 5 4 4 4 3 3 4 3 3 3 3 3 4 4 3 4 4 5 5 5 5 6 6 6 6 6 6 6 6 7 6 7 10 13 13 13 14 14 15 15 15 14 14 14 15
13 14 12 11 15 15 15 15 14 13 14 14 12 10 9 9 9 9 8 7 8 7 8 8 7 6 6 8 7 8 7 8 8 8 7 7 7 7 6 5 5 5 4 4 4 3 3 4 3 2 3 3 3 3 3 3 3 4 4 4 5 6 5 6 6 6 6 6 6 6 6 6 6 9 11 12 12 13 15 15 14 14 13 13 13
12 9 10 14 14 10 11 11 13 15 15 12 10 9 9 9 8 8 8 8 8 9 8 7 7 7 7 7 8 8 7 7 8 7 7 7 7 6 6 6 5 4 4 4 6 4 5 4 3 4 3 4 4 3 4 4 3 2 3 3 4 5 6 5 5 5 5 6 6 6 6 6 6 6 6 9 10 12 13 14 15 15 14 14 14
9 9 16 20 15 13 11 11 14 14 13 13 13 11 10 10 9 8 8 9 8 8 7 7 7 7 7 7 8 7 8 8 7 8 8 7 7 6 6 6 5 4 5 4 5 3 4 4 3 5 3 3 3 3 3 3 3 5 4 4 5 5 4 5 5 4 5 5 5 5 5 5 5 5 5 6 7 10 11 14 15 16 16 16 15
16 17 15 11 14 14 14 13 14 15 15 14 13 12 12 10 9 9 8 8 8 8 8 8 8 7 7 7 7 7 7 8 7 7 7 7 7 7 6 5 5 5 5 4 4 4 3 4 3 3 4 3 3 3 3 3 3 4 4 5 5 5 5 5 5 5 5 5 5 4 5 5 6 6 6 6 6 6 11 12 14 14 14 15 15
18 14 14 14 15 15 15 15 17 18 16 15 12 10 10 10 10 10 9 8 8 8 7 6 6 7 7 7 7 8 8 8 7 7 7 7 7 6 6 6 4 5 4 4 4 4 3 4 3 3 3 3 3 3 3 3 4 4 4 5 6 6 6 5 5 5 4 4 4 3 4 4 4 5 5 5 6 5 7 10 11 12 12 14 15
14 15 15 17 19 17 16 17 16 16 14 14 13 11 10 9 8 8 8 8 7 7 6 7 7 7 7 7 8 8 8 7 7 7 7 6 6 6 6 5 5 5 5 4 4 2 3 4 3 2 3 3 3 3 3 3 4 5 5 5 6 5 6 5 5 4 4 4 4 4 4 4 4 4 3 3 3 4 4 6 9 10 10 12 16
12 15 14 14 11 12 12 13 14 14 13 12 10 9 8 6 5 6 6 7 6 6 7 7 7 7 8 7 8 7 8 7 7 7 7 7 7 6 6 5 5 6 5 4 4 3 3 2 3 2 2 2 3 2 1 2 4 5 5 6 5 6 6 4 4 4 4 3 3 3 3 5 4 3 3 3 3 3 3 4 4 5 6 11 15
12 12 13 12 13 12 11 11 12 13 10 9 9 8 8 8 9 5 5 7 7 7 7 8 7 8 7 8 7 7 7 7 7 7 7 7 7 6 6 5 5 5 6 5 4 5 4 4 3 3 3 2 2 1 2 3 3 3 6 5 4 7 6 4 2 3 3 3 3 3 4 4 3 3 3 2 1 2 2 3 4 6 6 9 15
10 12 13 14 15 16 15 16 13 13 13 12 11 12 12 8 7 11 12 10 10 8 8 8 8 8 8 8 7 7 7 7 7 7 8 7 6 6 6 5 5 5 5 5 5 5 4 4 4 2 3 3 1 2 3 3 5 5 2 3 5 5 5 3 2 1 2 5 3 3 3 3 3 4 3 2 3 3 4 5 6 6 6 6 7
12 13 16 18 16 14 17 15 13 14 15 16 15 13 13 15 15 15 12 11 10 11 11 9 9 7 8 8 7 6 7 7 7 7 7 7 7 7 6 6 6 5 5 4 4 4 4 3 4 2 0 2 1 0 3 2 5 2 6 7 4 7 4 1 2 1 8 5 3 0 2 3 5 4 3 3 3 3 3 4 4 5 5 5 6
16 18 17 13 14 15 15 15 15 15 15 15 14 14 11 10 10 8 11 8 6 6 5 6 5 7 8 8 7 7 8 7 8 8 8 7 7 7 7 6 6 6 6 5 4 4 4 4 4 4 4 2 3 1 3 4 2 2 1 2 4 7 6 4 3 6 9 4 1 3 4 3 5 3 2 3 4 4 3 4 4 4 4 4 5
9 9 11 16 13 13 14 15 15 15 14 14 14 12 11 7 4 5 4 5 5 5 4 5 5 6 8 7 7 8 9 8 7 7 6 7 7 8 6 6 6 5 6 6 5 5 3 3 2 1 4 4 2 1 2 3 2 2 5 1 2 2 2 2 5 10 4 2 3 4 2 4 4 3 3 4 4 4 5 4 4 4 4 4 4
12 14 15 15 13 17 16 16 15 16 14 14 13 10 9 7 6 6 5 5 5 5 5 5 8 8 7 9 11 9 8 8 8 8 8 8 7 6 7 6 6 5 5 6 6 6 5 4 3 3 2 6 4 2 1 3 4 2 2 2 3 3 1 3 6 7 0 4 2 1 2 3 3 4 4 4 4 4 5 5 4 4 3 4 4
12 14 14 14 12 12 13 13 11 11 12 13 13 12 13 13 11 11 10 9 9 10 14 17 13 14 15 8 7 10 11 9 9 9 8 7 8 7 6 7 6 7 6 6 6 5 4 4 4 4 3 2 6 5 2 2 3 1 1 1 1 2 4 4 3 6 3 9 4 0 2 1 3 6 5 4 4 6 6 6 4 3 4 4 4
12 7 8 10 11 12 13 14 13 12 11 12 14 12 12 12 16 17 15 16 15 13 9 7 10 9 7 10 10 8 9 10 9 8 8 7 7 7 7 7 7 7 6 7 7 7 6 5 3 4 4 4 5 4 5 3 1 2 1 1 2 1 1 3 3 5 11 2 1 5 7 4 4 5 5 4 5 6 5 4 4 4 4 4 4
6 8 9 9 13 14 14 14 11 11 11 12 14 14 14 13 13 13 12 14 15 14 12 10 8 8 9 10 9 9 8 8 9 8 8 8 8 8 7 7 7 7 7 7 7 6 6 4 4 3 3 4 5 7 5 5 4 1 1 1 2 2 2 1 0 1 4 12 14 2 5 4 6 5 6 7 4 5 7 5 4 4 5 5 4
10 12 13 12 11 11 12 12 12 12 11 13 14 14 13 14 14 12 12 11 10 6 6 6 9 9 11 9 9 9 8 7 8 9 9 8 8 8 7 7 7 7 7 7 6 7 7 7 6 5 4 3 4 5 6 6 5 5 2 1 2 1 1 1 0 1 2 4 11 13 16 9 4 3 1 2 5 7 7 6 4 5 6 5 4
6 6 6 8 9 10 12 13 12 11 11 13 14 15 13 12 13 14 16 11 8 5 7 9 9 9 12 11 10 10 9 9 8 8 8 8 8 7 7 8 8 7 7 7 7 7 6 6 6 6 5 4 3 5 6 6 5 4 3 4 1 1 2 1 1 1 0 4 8 10 11 16 20 15 13 7 3 3 5 5 7 7 5 5 4
6 8 9 10 10 12 13 14 14 12 12 14 15 17 15 14 15 16 16 14 12 10 10 10 9 10 13 12 12 11 10 11 9 9 10 9 8 7 7 7 6 6 7 7 8 8 7 7 6 5 5 6 5 5 4 4 4 4 3 5 4 4 4 2 2 1 2 3 5 7 7 7 11 16 15 11 6 7 6 6 6 6 4 4 4
Wind_Direction
203 154 199 221 149 142 137 136 129 122 117 118 119 122 123 121 120 117 119 121 120 119 119 121 120 110 108 104 104 106 102 95 94 93 90 90 91 91 93 90 83 74 66 60 61 56 55 50 45 43 43 45 48 46 43 45 44 44 42 38 36 30 26 20 11 360 352 354 355 350 346 345 345 342 339 339 312 140 117 87 75 76 70 344 43
171 180 169 208 158 153 149 145 138 133 125 119 119 119 116 117 120 122 122 121 121 122 121 117 115 115 110 107 106 104 100 98 95 90 86 84 83 84 83 86 87 83 76 72 64 55 47 53 53 49 48 47 44 43 43 40 39 37 37 36 33 31 28 22 11 359 352 354 356 353 346 349 344 342 331 330 163 191 122 138 87 106 92 299 53
149 153 173 170 153 153 157 152 142 132 135 129 123 119 117 119 118 119 121 119 119 119 118 116 116 116 117 113 108 104 99 95 88 87 87 82 79 76 79 77 75 77 81 74 66 66 65 64 64 60 53 49 45 39 37 38 37 34 30 30 29 27 27 27 15 2 350 354 354 356 350 349 348 342 341 117 125 131 126 148 168 134 298 7 17
142 158 158 145 143 149 155 150 139 133 131 132 134 129 131 131 126 123 122 124 123 120 116 113 112 107 106 106 103 99 94 91 86 83 81 79 73 71 70 73 72 73 79 84 84 80 75 77 73 68 59 52 46 42 38 34 33 33 29 26 26 25 25 24 16 5 352 347 353 2 1 346 347 339 353 109 132 124 108 95 134 139 24 6 0
147 157 154 148 157 162 153 145 141 139 138 140 143 141 142 140 133 130 129 129 127 126 121 116 109 105 106 104 98 97 93 89 82 73 71 69 67 66 67 70 69 63 65 76 76 78 78 75 71 61 56 50 44 39 36 31 27 27 27 25 26 27 25 18 9 2 351 344 359 5 353 347 343 340 2 129 130 116 112 102 56 39 13 335 360
152 156 153 153 162 165 158 153 147 144 145 148 147 146 145 146 142 136 136 132 131 132 123 119 116 112 111 108 97 91 89 83 83 76 70 65 63 63 60 63 64 57 57 62 64 63 64 62 61 58 50 45 43 37 33 31 26 21 19 18 20 19 15 10 5 359 352 347 5 358 354 345 338 341 44 326 125 130 135 113 65 35 30 29 18
150 154 153 156 158 169 163 158 149 146 149 149 149 149 147 148 146 142 142 138 130 124 120 117 113 115 116 112 104 99 87 82 80 75 72 69 66 62 57 59 55 52 53 57 56 54 52 54 53 51 47 42 39 34 31 29 26 22 18 16 14 15 12 8 5 359 352 357 353 353 348 341 333 336 322 72 118 122 107 94 71 42 22 15 11
144 154 157 156 163 175 168 159 154 152 152 152 152 151 149 149 150 147 138 137 135 130 124 122 121 115 106 101 99 95 92 84 80 74 70 70 69 64 60 53 51 47 47 50 53 53 50 49 48 48 46 41 35 31 27 26 24 21 18 14 13 13 11 8 4 1 358 358 350 345 346 342 337 337 331 18 54 124 130 90 71 56 31 19 358
155 159 159 160 171 175 169 161 157 156 155 153 153 153 153 148 142 145 141 140 136 130 126 123 120 112 106 105 107 106 101 92 83 79 75 71 67 66 64 58 53 51 50 50 51 51 50 48 47 46 45 42 38 33 28 23 22 20 16 13 10 9 9 7 3 3 2 357 347 341 344 344 341 333 327 338 9 159 102 78 71 56 44 357 327
158 160 163 163 172 168 163 163 159 159 157 155 152 152 152 148 146 146 144 142 138 135 132 128 125 122 120 117 116 112 111 108 104 91 82 77 73 71 66 63 58 54 51 52 51 50 48 46 44 43 42 40 37 34 31 28 25 21 17 13 9 7 7 4 2 0 358 350 346 341 339 344 345 335 321 331 342 95 104 134 117 71 308 293 326
158 165 168 161 170 165 165 165 163 160 158 155 154 152 152 151 148 145 144 142 139 137 133 129 124 121 119 117 115 114 111 107 101 93 88 85 83 78 74 69 65 60 55 52 52 51 49 47 45 44 41 40 37 35 32 32 32 30 25 19 15 11 7 4 2 351 347 346 344 342 341 345 341 335 332 334 325 357 159 159 14 302 309 1 357
162 165 167 162 172 169 170 166 164 162 159 156 154 153 151 150 150 146 142 140 138 134 133 132 131 129 127 126 124 120 115 110 106 102 95 92 88 84 82 78 75 70 66 59 56 54 53 51 48 44 43 42 39 38 38 38 38 36 32 28 24 19 14 7 3 350 343 341 340 344 347 343 340 331 334 336 334 324 170 219 212 301 5 359 352
163 166 166 166 169 176 170 168 163 160 158 155 153 151 150 148 147 145 142 141 140 139 138 137 135 134 132 130 128 125 122 118 113 110 107 101 96 91 85 82 78 76 71 67 62 59 57 54 52 49 45 43 42 41 41 41 38 32 27 23 20 18 16 14 10 358 347 342 339 340 342 342 338 331 337 334 331 325 305 322 339 349 354 347 342
159 165 164 163 167 170 166 165 163 160 158 156 155 153 152 150 149 146 145 143 142 141 140 139 138 135 133 130 128 126 123 119 116 112 109 105 99 95 93 89 86 82 79 76 70 67 63 61 58 56 55 54 51 45 42 39 35 32 28 23 20 21 19 16 17 11 359 350 343 340 343 341 333 341 346 343 336 319 317 22 331 329 340 346 345
155 159 159 158 167 167 172 166 166 163 160 158 155 154 153 150 149 147 146 144 143 143 142 140 138 135 132 131 129 127 124 122 118 115 111 108 105 102 98 95 92 89 86 81 77 72 68 65 61 56 53 52 49 45 42 40 37 34 30 27 27 29 26 22 16 12 7 357 348 346 346 342 340 346 349 352 354 348 339 330 293 327 335 342 347
153 155 152 156 160 169 167 173 168 162 161 158 157 155 153 150 148 147 145 145 144 144 141 140 138 136 134 131 129 128 126 124 122 119 115 112 109 106 103 101 98 95 90 87 83 79 74 70 65 60 54 50 47 43 39 39 37 34 31 28 26 26 26 30 21 17 8 2 359 359 352 343 341 349 351 351 351 359 0 359 358 350 337 331 335
155 152 152 161 163 164 169 169 165 160 156 158 158 155 155 153 151 149 149 149 147 146 145 143 141 138 136 133 129 126 124 123 121 119 114 110 108 103 100 101 99 94 89 88 84 79 75 72 68 63 57 54 49 45 43 40 38 34 32 28 25 25 24 27 22 17 10 10 11 3 352 337 347 352 353 352 352 350 354 355 352 351 349 346 339
160 159 161 163 166 170 168 167 162 153 155 156 159 155 156 156 153 151 152 152 151 150 149 148 145 141 136 133 130 127 123 118 116 113 107 102 99 96 97 98 95 89 86 84 82 77 73 69 65 62 58 54 51 47 45 42 38 35 31 28 26 24 24 26 23 13 12 10 10 2 351 349 356 356 354 354 355 355 354 348 346 346 346 344 345
167 171 164 166 176 173 174 165 157 151 148 149 155 159 157 157 155 154 153 154 152 150 150 147 143 140 136 132 125 116 111 107 102 102 99 94 89 83 87 90 86 81 78 76 74 71 67 63 59 55 51 48 46 43 39 37 34 31 27 24 22 22 26 26 21 13 13 9 7 2 343 355 356 356 354 354 355 355 353 350 348 346 345 345 343
177 178 177 183 174 178 178 170 163 157 152 154 163 165 160 157 157 155 155 154 153 152 149 146 141 136 132 126 120 114 108 102 95 87 89 82 78 80 78 80 77 75 73 73 71 69 66 62 57 53 49 45 39 34 31 33 30 26 21 18 16 17 18 16 17 17 13 6 5 354 349 359 357 354 355 355 354 353 352 352 351 349 345 342 340
195 195 185 186 182 181 183 173 175 165 160 160 165 168 166 158 157 156 154 154 154 153 152 141 130 126 121 124 122 120 120 109 99 95 77 64 59 72 74 73 71 70 73 74 74 74 74 69 64 60 57 49 38 30 25 27 25 23 19 15 16 15 7 9 9 7 10 2 2 345 354 357 357 355 354 353 353 352 352 351 349 347 346 344 341
191 195 203 187 182 189 185 180 175 176 166 164 164 170 177 155 153 154 151 151 151 147 141 145 142 134 130 125 127 131 125 120 109 92 79 68 72 74 76 77 73 70 72 75 76 77 77 74 69 64 58 50 44 34 22 18 20 21 17 16 18 11 3 3 4 360 0 354 358 342 354 354 355 354 352 352 352 350 350 350 348 344 342 341 339
197 200 203 196 190 183 183 182 182 176 169 169 169 174 174 160 152 150 150 143 144 143 152 152 147 141 140 135 130 127 129 122 118 112 100 96 89 87 86 83 77 69 67 69 74 74 73 74 68 63 57 52 47 38 28 20 14 15 15 16 15 8 2 4 359 357 351 344 353 342 351 351 351 351 351 352 351 350 348 346 346 345 342 340 339
198 196 193 190 187 188 190 185 179 177 172 174 172 174 173 169 158 157 154 152 149 154 157 154 143 148 159 151 139 140 130 132 125 111 99 88 81 75 74 71 74 71 63 49 48 60 59 57 59 56 50 48 49 38 28 18 17 12 12 14 9 3 3 356 353 347 345 343 342 340 348 348 348 347 348 349 348 349 347 346 344 344 343 341 339
196 182 178 192 194 191 185 188 181 177 175 174 173 179 177 169 167 163 159 157 152 153 157 151 143 163 169 169 166 150 129 119 117 113 108 103 94 86 78 72 66 62 67 61 54 45 48 44 39 42 42 38 36 29 27 19 12 7 8 5 4 0 356 352 346 343 341 340 333 338 343 344 344 345 346 346 346 346 346 346 344 342 342 341 340
170 184 198 191 195 193 187 184 180 182 181 176 179 176 170 174 172 170 159 160 156 161 160 163 164 174 171 171 165 140 128 127 124 118 115 111 105 102 94 89 67 59 51 69 54 48 42 41 42 42 33 37 39 28 24 26 11 6 3 2 0 355 352 346 343 338 335 334 328 334 338 340 341 343 343 343 344 345 345 345 345 343 343 342 341
194 205 192 195 191 192 188 179 184 182 185 179 172 173 183 180 170 169 161 170 163 165 174 178 180 176 170 168 157 148 138 135 128 127 126 124 121 122 122 114 110 95 77 90 75 63 60 52 47 47 41 41 36 30 25 22 21 11 4 0 358 354 349 342 339 335 332 331 326 329 334 336 338 340 341 342 345 345 345 346 345 345 346 345 344
194 204 195 192 188 194 187 180 185 182 183 179 175 180 181 176 176 171 174 170 165 176 179 183 178 177 170 167 154 152 147 141 142 137 143 131 137 136 136 127 131 131 131 117 99 71 62 56 58 42 39 37 36 25 24 21 16 19 7 0 355 354 345 338 333 331 328 328 328 325 329 332 335 337 339 343 344 345 346 348 348 349 350 349 347
206 204 196 193 196 188 184 187 184 185 182 178 181 180 179 178 177 177 178 175 177 178 179 176 178 178 168 165 161 153 149 146 148 149 144 139 140 140 140 143 139 150 133 122 118 107 80 75 65 61 54 45 38 29 22 18 15 13 12 356 354 347 342 336 333 329 328 324 324 320 324 328 331 332 337 342 344 348 349 351 352 353 351 349 348
209 197 192 201 190 185 188 190 185 183 180 178 183 179 182 181 183 183 180 177 181 175 173 181 183 172 171 170 169 158 158 157 152 151 146 148 146 143 139 149 144 155 139 127 149 118 116 90 78 74 68 54 47 26 31 16 12 8 8 356 347 340 333 331 329 327 323 322 319 317 317 321 323 327 332 337 344 348 350 352 355 355 354 352 352
194 202 201 199 188 184 194 191 185 182 177 184 182 184 179 186 184 181 178 183 175 170 176 178 179 179 171 167 168 159 157 155 152 153 148 149 148 146 150 153 143 155 147 136 138 122 110 101 103 94 78 68 54 36 38 20 5 3 359 356 338 334 329 328 323 322 322 318 316 314 314 316 317 320 324 334 342 346 347 350 353 356 355 356 353
196 207 202 188 183 194 192 189 186 181 180 186 182 183 185 186 182 179 184 180 171 176 175 177 179 178 165 167 166 161 157 157 154 155 153 153 152 150 156 151 156 159 144 134 122 117 109 113 110 106 105 92 72 52 41 37 10 355 349 345 335 329 323 323 322 320 318 317 315 315 315 312 311 314 319 329 338 342 341 345 350 352 355 356 354
212 205 192 181 194 192 189 190 184 182 184 185 184 184 181 182 179 186 183 173 176 175 177 181 178 175 166 166 165 161 160 158 160 159 156 154 152 151 157 159 161 151 141 133 119 109 94 97 90 106 95 84 80 51 50 51 24 349 345 328 329 316 310 314 311 314 315 314 315 313 313 313 311 314 318 324 331 335 333 334 341 344 348 349 351
202 193 176 195 195 187 189 183 185 186 187 183 180 181 181 182 180 181 179 172 178 177 181 178 174 173 168 166 164 164 160 159 158 159 154 152 154 157 157 161 164 149 140 129 116 125 119 114 125 98 83 73 61 45 34 19 8 338 327 308 306 296 304 302 301 302 304 304 306 309 307 310 311 311 312 320 329 327 320 322 330 339 343 345 346
188 186 193 199 184 186 181 185 187 187 182 184 182 182 178 179 177 178 178 178 177 178 176 173 175 175 167 167 166 164 164 162 163 157 158 153 156 159 161 167 160 150 132 140 126 125 124 119 114 90 76 68 66 54 48 28 347 340 324 312 297 297 293 289 296 297 297 295 304 300 304 303 303 303 310 325 334 324 317 322 328 337 345 349 350
196 198 199 180 187 185 183 183 182 184 186 184 183 180 178 177 177 177 174 179 175 177 176 179 175 170 169 167 171 166 167 166 162 158 155 158 159 163 167 162 160 139 135 128 116 115 107 95 75 112 94 61 61 31 46 21 348 324 315 308 297 293 295 291 292 290 284 294 296 303 305 307 314 320 324 327 323 318 318 323 332 344 350 352 353
200 193 187 186 188 184 183 181 182 185 184 183 179 177 172 173 176 178 176 173 177 177 177 171 168 171 172 171 173 170 170 167 163 160 152 158 160 160 167 165 154 140 134 125 115 132 114 99 81 90 106 112 73 42 17 17 341 321 310 304 297 297 289 293 291 284 293 292 295 294 304 306 306 309 307 306 314 313 320 327 336 341 344 348 353
201 195 191 185 187 183 184 185 183 182 179 177 175 174 174 168 171 172 170 175 178 172 170 168 176 178 172 175 175 171 171 167 162 159 151 156 160 159 164 161 146 136 130 126 132 101 103 111 106 69 98 101 73 53 16 356 341 320 315 305 298 293 284 289 288 291 291 294 301 305 296 299 307 292 290 305 300 314 325 329 339 345 344 347 351
199 196 190 190 180 181 180 181 175 176 175 170 165 161 154 148 143 157 168 175 176 176 169 178 180 177 182 175 173 172 170 166 161 158 151 157 158 159 160 162 145 139 131 128 117 109 102 84 116 81 39 91 108 76 53 349 327 313 304 297 293 288 286 281 285 289 279 273 292 294 302 305 299 291 305 303 310 332 332 336 348 351 341 343 351
197 189 186 182 182 177 178 175 176 170 161 156 150 149 152 161 162 158 175 192 185 179 186 184 176 184 182 173 175 173 169 165 161 160 154 158 160 165 161 159 150 141 139 138 146 138 139 118 133 123 98 65 43 73 51 16 321 300 291 294 282 288 287 285 275 268 287 299 275 284 304 304 300 295 294 287 314 321 336 355 7 356 355 349 351
191 184 182 185 183 179 171 178 172 166 164 163 167 164 167 166 173 186 193 187 187 183 186 187 185 184 178 176 174 172 169 163 164 161 163 161 163 162 157 162 154 150 150 164 162 162 160 155 157 150 133 99 48 0 17 69 27 333 267 271 309 281 283 292 273 213 299 301 290 310 304 316 309 317 297 305 346 357 7 12 6 2 352 351 347
200 183 186 189 182 174 178 172 167 173 175 174 174 177 179 181 180 189 185 182 181 186 192 190 187 179 178 176 174 170 170 171 168 167 166 167 166 169 169 169 161 161 163 156 155 157 151 149 143 80 348 118 106 48 359 79 21 46 327 335 336 321 310 15 191 297 353 341 325 271 300 305 313 304 321 356 350 358 5 9 6 356 351 350 344
189 187 190 173 177 179 179 171 175 175 179 177 173 182 182 182 182 180 180 179 196 190 179 172 162 174 182 178 173 174 173 175 173 173 171 176 173 168 175 168 168 161 153 157 158 162 163 167 178 150 110 37 93 48 49 70 129 264 205 345 334 12 333 354 305 338 331 308 278 353 349 327 307 306 328 357 351 350 357 8 2 1 347 342 342
176 185 176 182 179 182 178 175 177 178 177 180 181 179 171 156 132 135 141 136 166 151 139 138 158 161 185 183 184 178 179 177 177 174 176 176 174 175 168 170 173 168 161 160 165 170 158 158 162 186 139 101 101 64 47 76 102 50 6 79 271 105 352 327 333 296 231 230 355 339 354 327 308 324 360 1 335 351 349 360 360 340 330 338 349
188 186 183 181 184 183 179 176 176 180 180 176 173 156 134 121 108 89 93 87 77 131 144 178 183 184 176 190 193 177 175 177 179 183 178 178 175 172 172 172 165 167 157 160 166 169 166 170 163 167 179 142 130 128 25 65 71 80 140 43 348 7 211 257 322 284 350 327 3 319 351 337 327 330 353 340 351 356 351 338 323 323 325 341 330
194 195 186 182 173 173 173 175 174 177 177 174 167 158 164 160 152 153 166 179 182 177 192 193 185 189 196 174 161 183 181 180 183 181 179 173 178 174 169 166 168 168 167 165 158 145 162 162 184 168 167 152 136 121 117 28 85 110 148 150 167 202 302 294 14 312 282 262 204 164 11 318 334 332 342 352 349 339 329 315 315 316 325 320 308
201 172 169 174 171 171 174 175 175 177 175 173 169 165 167 174 178 182 183 187 191 206 200 182 185 186 161 177 183 180 186 180 183 180 179 177 173 173 172 174 171 168 164 152 159 165 166 173 169 164 183 148 123 120 142 162 24 20 61 101 97 81 119 5 317 317 322 348 145 353 346 338 360 353 337 331 330 319 311 302 301 306 309 301 301
162 159 169 169 173 175 172 175 174 175 176 172 174 177 176 181 185 190 192 195 199 198 187 187 174 167 174 180 176 185 184 184 177 181 179 180 177 176 174 171 170 170 164 167 163 160 150 153 166 169 169 157 143 132 142 146 126 225 32 38 26 63 81 115 96 286 277 309 308 278 191 87 21 329 308 311 317 309 299 294 296 303 299 295 297
168 175 177 175 171 169 171 172 175 174 175 177 178 185 184 184 187 188 198 209 203 187 172 167 173 174 180 176 179 180 180 183 183 180 184 182 180 178 174 172 171 174 168 158 156 155 157 154 150 148 157 162 139 136 122 148 133 171 101 6 72 65 38 43 265 122 268 315 298 321 313 307 293 203 228 272 299 291 285 288 291 293 288 292 293
165 155 152 154 163 165 172 174 178 177 176 180 183 187 187 182 189 196 200 195 185 164 169 177 179 179 187 184 182 178 181 180 184 184 179 185 181 177 177 179 178 172 167 162 154 154 157 158 162 159 160 148 140 129 135 143 140 149 147 156 122 57 44 10 75 111 244 200 263 306 313 323 327 321 325 310 227 259 283 277 282 278 273 263 280
160 158 161 166 166 170 173 179 181 177 179 183 184 190 190 190 197 197 198 193 186 173 173 188 183 184 193 188 187 186 181 183 175 183 184 180 182 179 179 181 175 172 162 161 167 162 161 157 158 153 156 152 150 134 126 131 136 142 156 158 176 161 183 178 220 208 188 250 291 264 276 284 292 303 307 315 315 298 275 260 255 256 256 271 273